| time (UTC) | temp F | wind direction | speed MPH | gust MPH | rain 1hr in | rain 24hr in | rain mn in | humidity % | barometer mb |
| 20260831233048 | 70 | 132 | 1.0 | 3.0 | 0.00 | 0.02 | 0.00 | 79 | 1019.5 |
| 20260831232530 | 70 | 0 | 0.0 | 3.0 | 0.00 | 0.02 | 0.00 | 79 | 1019.7 |
| 20260831232030 | 70 | 132 | 0.0 | 3.0 | 0.00 | 0.02 | 0.00 | 78 | 1019.7 |
| 20260831231546 | 70 | 132 | 0.0 | 4.0 | 0.00 | 0.02 | 0.00 | 78 | 1019.6 |
| 20260831231031 | 70 | 132 | 0.0 | 4.0 | 0.00 | 0.02 | 0.00 | 78 | 1019.5 |
| 20260831230531 | 70 | 132 | 1.0 | 4.0 | 0.00 | 0.02 | 0.00 | 78 | 1019.6 |
| 20260831230044 | 70 | 132 | 1.0 | 4.0 | 0.00 | 0.02 | 0.00 | 77 | 1019.6 |
| 20260831225531 | 70 | 132 | 1.0 | 6.0 | 0.00 | 0.02 | 0.00 | 77 | 1019.5 |
| 20260831225031 | 70 | 132 | 2.0 | 6.0 | 0.00 | 0.02 | 0.00 | 77 | 1019.5 |
| 20260831224550 | 70 | 132 | 2.0 | 5.0 | 0.00 | 0.02 | 0.00 | 77 | 1019.5 |
| 20260831224031 | 70 | 132 | 2.0 | 4.0 | 0.00 | 0.02 | 0.00 | 76 | 1019.6 |
| 20260831223531 | 70 | 132 | 2.0 | 6.0 | 0.00 | 0.02 | 0.00 | 76 | 1019.5 |
| 20260831223051 | 70 | 132 | 2.0 | 6.0 | 0.00 | 0.02 | 0.00 | 75 | 1019.5 |
| 20260831222531 | 70 | 132 | 2.0 | 4.0 | 0.00 | 0.02 | 0.00 | 76 | 1019.7 |
| 20260831222030 | 70 | 132 | 2.0 | 7.0 | 0.00 | 0.02 | 0.00 | 75 | 1019.8 |
| 20260831221601 | 71 | 132 | 2.0 | 7.0 | 0.00 | 0.02 | 0.00 | 74 | 1019.8 |
| 20260831221030 | 71 | 0 | 1.0 | 7.0 | 0.00 | 0.02 | 0.00 | 74 | 1019.8 |
| 20260831220530 | 71 | 132 | 2.0 | 7.0 | 0.00 | 0.02 | 0.00 | 74 | 1019.7 |
| 20260831220052 | 71 | 132 | 1.0 | 7.0 | 0.00 | 0.02 | 0.00 | 73 | 1019.8 |
| 20260831215531 | 71 | 132 | 1.0 | 6.0 | 0.00 | 0.02 | 0.00 | 73 | 1019.9 |
| 20260831215031 | 71 | 132 | 2.0 | 7.0 | 0.00 | 0.02 | 0.00 | 72 | 1019.7 |
| 20260831214554 | 71 | 132 | 2.0 | 7.0 | 0.00 | 0.02 | 0.00 | 71 | 1019.7 |
| 20260831214030 | 71 | 132 | 3.0 | 8.0 | 0.00 | 0.02 | 0.00 | 71 | 1019.8 |
| 20260831213532 | 71 | 132 | 3.0 | 8.0 | 0.00 | 0.02 | 0.00 | 70 | 1019.8 |
| 20260831213047 | 71 | 132 | 4.0 | 8.0 | 0.00 | 0.02 | 0.00 | 70 | 1019.8 |
| 20260831212532 | 71 | 132 | 2.0 | 8.0 | 0.00 | 0.02 | 0.00 | 70 | 1019.8 |
| 20260831212032 | 72 | 132 | 4.0 | 8.0 | 0.00 | 0.02 | 0.00 | 68 | 1019.7 |
| 20260831211552 | 72 | 132 | 3.0 | 9.0 | 0.00 | 0.02 | 0.00 | 68 | 1019.7 |
| 20260831211030 | 72 | 132 | 3.0 | 9.0 | 0.00 | 0.02 | 0.00 | 69 | 1019.9 |
| 20260831210533 | 73 | 132 | 3.0 | 9.0 | 0.00 | 0.02 | 0.00 | 68 | 1019.8 |
| 20260831210046 | 73 | 132 | 3.0 | 8.0 | 0.00 | 0.02 | 0.00 | 68 | 1019.8 |
| 20260831205530 | 72 | 132 | 2.0 | 8.0 | 0.00 | 0.02 | 0.00 | 69 | 1019.9 |
| 20260831205031 | 73 | 132 | 2.0 | 9.0 | 0.00 | 0.02 | 0.00 | 67 | 1019.8 |
| 20260831204547 | 73 | 132 | 4.0 | 9.0 | 0.00 | 0.02 | 0.00 | 65 | 1019.9 |
| 20260831204032 | 74 | 132 | 2.0 | 9.0 | 0.00 | 0.02 | 0.00 | 64 | 1019.9 |
| 20260831203530 | 74 | 132 | 5.0 | 9.0 | 0.00 | 0.02 | 0.00 | 61 | 1019.9 |
| 20260831203056 | 74 | 130 | 3.0 | 8.0 | 0.00 | 0.02 | 0.00 | 63 | 1020.1 |
| 20260831202532 | 74 | 130 | 2.0 | 8.0 | 0.00 | 0.02 | 0.00 | 63 | 1020.0 |
| 20260831202036 | 74 | 130 | 2.0 | 8.0 | 0.00 | 0.02 | 0.00 | 62 | 1020.1 |
| 20260831201552 | 75 | 130 | 2.0 | 8.0 | 0.00 | 0.02 | 0.00 | 59 | 1020.0 |
| 20260831201031 | 75 | 0 | 0.0 | 8.0 | 0.00 | 0.02 | 0.00 | 61 | 1020.0 |
| 20260831200532 | 74 | 0 | 1.0 | 8.0 | 0.00 | 0.02 | 0.00 | 60 | 1020.1 |
| 20260831200047 | 74 | 0 | 2.0 | 8.0 | 0.00 | 0.02 | 0.00 | 61 | 1020.0 |
| 20260831195531 | 74 | 0 | 2.0 | 6.0 | 0.00 | 0.02 | 0.00 | 64 | 1020.0 |
| 20260831195030 | 73 | 129 | 0.0 | 7.0 | 0.00 | 0.02 | 0.00 | 66 | 1019.9 |
| 20260831194602 | 73 | 129 | 2.0 | 9.0 | 0.00 | 0.02 | 0.00 | 64 | 1019.9 |
| 20260831194033 | 73 | 0 | 1.0 | 9.0 | 0.00 | 0.02 | 0.00 | 63 | 1020.1 |
| 20260831193530 | 74 | 129 | 2.0 | 9.0 | 0.00 | 0.02 | 0.00 | 64 | 1020.0 |
| 20260831193047 | 74 | 123 | 2.0 | 9.0 | 0.00 | 0.02 | 0.00 | 65 | 1020.1 |
| 20260831192533 | 74 | 119 | 0.0 | 7.0 | 0.00 | 0.02 | 0.00 | 67 | 1020.1 |
| 20260831192031 | 74 | 0 | 1.0 | 8.0 | 0.00 | 0.02 | 0.00 | 64 | 1020.1 |
| 20260831191544 | 74 | 0 | 0.0 | 8.0 | 0.00 | 0.02 | 0.00 | 66 | 1020.3 |
| 20260831191031 | 75 | 0 | 1.0 | 8.0 | 0.00 | 0.02 | 0.00 | 68 | 1020.3 |
| 20260831190533 | 75 | 118 | 0.0 | 7.0 | 0.00 | 0.02 | 0.00 | 69 | 1020.3 |
| 20260831190108 | 75 | 118 | 1.0 | 7.0 | 0.00 | 0.02 | 0.00 | 71 | 1020.2 |
| 20260831185533 | 75 | 0 | 1.0 | 8.0 | 0.00 | 0.02 | 0.00 | 69 | 1020.3 |
| 20260831185031 | 75 | 0 | 1.0 | 8.0 | 0.00 | 0.02 | 0.00 | 69 | 1020.2 |
| 20260831184552 | 75 | 0 | 1.0 | 6.0 | 0.00 | 0.02 | 0.00 | 71 | 1020.4 |
| 20260831184031 | 74 | 122 | 3.0 | 6.0 | 0.00 | 0.02 | 0.00 | 71 | 1020.5 |
| 20260831183534 | 75 | 122 | 2.0 | 8.0 | 0.00 | 0.02 | 0.00 | 71 | 1020.5 |
| 20260831183101 | 74 | 0 | 1.0 | 8.0 | 0.00 | 0.02 | 0.00 | 75 | 1020.5 |
| 20260831182534 | 74 | 119 | 2.0 | 8.0 | 0.00 | 0.02 | 0.00 | 74 | 1020.5 |
| 20260831182031 | 74 | 119 | 3.0 | 8.0 | 0.00 | 0.02 | 0.00 | 74 | 1020.4 |
| 20260831181552 | 74 | 119 | 2.0 | 9.0 | 0.00 | 0.02 | 0.00 | 74 | 1020.5 |
| 20260831181031 | 74 | 123 | 3.0 | 10.0 | 0.00 | 0.02 | 0.00 | 73 | 1020.5 |
| 20260831180533 | 74 | 125 | 5.0 | 10.0 | 0.00 | 0.02 | 0.00 | 72 | 1020.6 |
| 20260831180100 | 74 | 122 | 2.0 | 8.0 | 0.00 | 0.02 | 0.00 | 74 | 1020.6 |
| 20260831175530 | 74 | 123 | 3.0 | 7.0 | 0.00 | 0.02 | 0.00 | 73 | 1020.7 |
| 20260831175034 | 74 | 0 | 1.0 | 7.0 | 0.00 | 0.02 | 0.00 | 74 | 1020.7 |
| 20260831174549 | 74 | 123 | 2.0 | 7.0 | 0.00 | 0.02 | 0.00 | 72 | 1020.6 |
| 20260831174030 | 74 | 123 | 3.0 | 7.0 | 0.00 | 0.02 | 0.00 | 71 | 1020.5 |
| 20260831173531 | 74 | 123 | 2.0 | 9.0 | 0.00 | 0.02 | 0.00 | 70 | 1020.6 |
| 20260831173052 | 74 | 123 | 3.0 | 9.0 | 0.00 | 0.02 | 0.00 | 70 | 1020.6 |
| 20260831172531 | 75 | 0 | 2.0 | 7.0 | 0.00 | 0.02 | 0.00 | 69 | 1020.7 |
| 20260831172032 | 75 | 122 | 0.0 | 7.0 | 0.00 | 0.02 | 0.00 | 70 | 1020.7 |
| 20260831171544 | 75 | 122 | 3.0 | 7.0 | 0.00 | 0.02 | 0.00 | 69 | 1020.8 |
| 20260831171032 | 74 | 0 | 2.0 | 8.0 | 0.00 | 0.02 | 0.00 | 71 | 1020.7 |
| 20260831170532 | 73 | 126 | 2.0 | 8.0 | 0.00 | 0.02 | 0.00 | 71 | 1020.7 |
| 20260831170052 | 74 | 126 | 4.0 | 9.0 | 0.00 | 0.02 | 0.00 | 70 | 1020.6 |
| 20260831165532 | 74 | 118 | 4.0 | 13.0 | 0.00 | 0.02 | 0.00 | 69 | 1020.7 |
| 20260831165032 | 75 | 0 | 2.0 | 13.0 | 0.00 | 0.02 | 0.00 | 71 | 1020.6 |
| 20260831164548 | 75 | 148 | 4.0 | 12.0 | 0.00 | 0.02 | 0.00 | 69 | 1020.6 |
| 20260831164031 | 74 | 111 | 2.0 | 10.0 | 0.00 | 0.02 | 0.00 | 71 | 1020.7 |
| 20260831163532 | 74 | 111 | 3.0 | 10.0 | 0.00 | 0.02 | 0.00 | 71 | 1020.7 |
| 20260831163046 | 74 | 132 | 3.0 | 10.0 | 0.00 | 0.02 | 0.00 | 71 | 1020.8 |
| 20260831162535 | 74 | 135 | 3.0 | 10.0 | 0.00 | 0.02 | 0.00 | 72 | 1020.8 |
| 20260831162032 | 74 | 104 | 3.0 | 10.0 | 0.00 | 0.02 | 0.00 | 71 | 1021.0 |
| 20260831161548 | 74 | 111 | 2.0 | 11.0 | 0.00 | 0.02 | 0.00 | 74 | 1021.0 |
| 20260831161031 | 74 | 90 | 3.0 | 11.0 | 0.00 | 0.02 | 0.00 | 71 | 1020.9 |
| 20260831160532 | 74 | 88 | 1.0 | 7.0 | 0.00 | 0.02 | 0.00 | 73 | 1021.0 |
| 20260831160057 | 74 | 82 | 0.0 | 10.0 | 0.00 | 0.02 | 0.00 | 72 | 1021.0 |
| 20260831155534 | 73 | 80 | 2.0 | 11.0 | 0.00 | 0.02 | 0.00 | 71 | 1021.0 |
| 20260831155032 | 73 | 133 | 5.0 | 11.0 | 0.00 | 0.02 | 0.00 | 70 | 1020.9 |
| 20260831154614 | 74 | 117 | 3.0 | 10.0 | 0.00 | 0.02 | 0.00 | 69 | 1020.9 |
| 20260831154035 | 74 | 0 | 4.0 | 10.0 | 0.00 | 0.02 | 0.00 | 70 | 1020.9 |
| 20260831153533 | 74 | 132 | 2.0 | 9.0 | 0.00 | 0.02 | 0.00 | 68 | 1021.0 |
| 20260831153059 | 74 | 136 | 4.0 | 9.0 | 0.00 | 0.02 | 0.00 | 68 | 1021.1 |
| 20260831152531 | 74 | 156 | 2.0 | 9.0 | 0.00 | 0.02 | 0.00 | 69 | 1021.2 |
| 20260831152032 | 74 | 98 | 3.0 | 9.0 | 0.00 | 0.02 | 0.00 | 68 | 1021.0 |
| 20260831151555 | 74 | 0 | 2.0 | 7.0 | 0.00 | 0.02 | 0.00 | 68 | 1021.1 |
| 20260831151031 | 74 | 92 | 1.0 | 8.0 | 0.00 | 0.02 | 0.00 | 69 | 1021.2 |
| 20260831150531 | 74 | 94 | 1.0 | 9.0 | 0.00 | 0.02 | 0.00 | 72 | 1021.3 |
| 20260831150053 | 73 | 96 | 3.0 | 10.0 | 0.00 | 0.02 | 0.00 | 71 | 1021.1 |
| 20260831145533 | 73 | 78 | 2.0 | 10.0 | 0.00 | 0.02 | 0.00 | 71 | 1021.2 |
| 20260831145033 | 73 | 0 | 3.0 | 11.0 | 0.00 | 0.02 | 0.00 | 71 | 1021.3 |
| 20260831144555 | 73 | 0 | 3.0 | 11.0 | 0.00 | 0.02 | 0.00 | 70 | 1021.1 |
| 20260831144033 | 73 | 100 | 1.0 | 8.0 | 0.00 | 0.02 | 0.00 | 70 | 1021.1 |
| 20260831143530 | 73 | 0 | 3.0 | 10.0 | 0.00 | 0.02 | 0.00 | 70 | 1021.1 |
| 20260831143045 | 73 | 120 | 1.0 | 10.0 | 0.00 | 0.02 | 0.00 | 69 | 1021.1 |
| 20260831142531 | 73 | 85 | 2.0 | 9.0 | 0.00 | 0.02 | 0.00 | 70 | 1021.3 |
| 20260831142031 | 72 | 107 | 2.0 | 9.0 | 0.00 | 0.02 | 0.00 | 71 | 1021.1 |
| 20260831141546 | 72 | 124 | 2.0 | 8.0 | 0.00 | 0.02 | 0.00 | 71 | 1021.2 |
| 20260831141031 | 73 | 123 | 2.0 | 8.0 | 0.00 | 0.02 | 0.00 | 70 | 1021.1 |
| 20260831140532 | 73 | 124 | 0.0 | 11.0 | 0.00 | 0.02 | 0.00 | 70 | 1021.0 |
| 20260831140053 | 73 | 0 | 2.0 | 11.0 | 0.00 | 0.02 | 0.00 | 69 | 1020.9 |
| 20260831135530 | 74 | 0 | 0.0 | 4.0 | 0.00 | 0.02 | 0.00 | 69 | 1020.8 |
| 20260831135030 | 73 | 0 | 0.0 | 4.0 | 0.00 | 0.02 | 0.00 | 70 | 1020.8 |
| 20260831134551 | 73 | 0 | 0.0 | 7.0 | 0.00 | 0.02 | 0.00 | 70 | 1020.7 |
| 20260831134031 | 73 | 0 | 1.0 | 8.0 | 0.00 | 0.02 | 0.00 | 69 | 1020.8 |
| 20260831133531 | 73 | 57 | 1.0 | 8.0 | 0.00 | 0.02 | 0.00 | 69 | 1020.7 |
| 20260831133047 | 73 | 0 | 1.0 | 6.0 | 0.00 | 0.02 | 0.00 | 70 | 1020.6 |
| 20260831132531 | 73 | 57 | 0.0 | 6.0 | 0.00 | 0.02 | 0.00 | 73 | 1020.6 |
| 20260831132032 | 73 | 360 | 0.0 | 6.0 | 0.00 | 0.02 | 0.00 | 72 | 1020.6 |
| 20260831131551 | 73 | 0 | 1.0 | 5.0 | 0.00 | 0.02 | 0.00 | 72 | 1020.6 |
| 20260831131031 | 72 | 0 | 1.0 | 5.0 | 0.00 | 0.02 | 0.00 | 73 | 1020.5 |
| 20260831130531 | 72 | 0 | 0.0 | 4.0 | 0.00 | 0.02 | 0.00 | 75 | 1020.6 |
| 20260831130053 | 72 | 352 | 1.0 | 4.0 | 0.00 | 0.02 | 0.00 | 74 | 1020.5 |
| 20260831125532 | 71 | 0 | 0.0 | 2.0 | 0.00 | 0.02 | 0.00 | 76 | 1020.5 |
| 20260831125033 | 71 | 352 | 0.0 | 2.0 | 0.00 | 0.02 | 0.00 | 77 | 1020.4 |
| 20260831124550 | 71 | 0 | 0.0 | 0.0 | 0.00 | 0.02 | 0.00 | 78 | 1020.5 |
| 20260831124029 | 70 | 0 | 0.0 | 2.0 | 0.00 | 0.02 | 0.00 | 80 | 1020.5 |
| 20260831123530 | 70 | 0 | 0.0 | 2.0 | 0.00 | 0.02 | 0.00 | 81 | 1020.4 |
| 20260831123047 | 70 | 0 | 0.0 | 2.0 | 0.00 | 0.02 | 0.00 | 80 | 1020.5 |
| 20260831122530 | 70 | 0 | 0.0 | 2.0 | 0.00 | 0.02 | 0.00 | 81 | 1020.4 |
| 20260831122033 | 70 | 0 | 0.0 | 2.0 | 0.00 | 0.02 | 0.00 | 81 | 1020.4 |
| 20260831121546 | 70 | 0 | 0.0 | 2.0 | 0.00 | 0.02 | 0.00 | 81 | 1020.3 |
| 20260831121029 | 70 | 0 | 0.0 | 0.0 | 0.00 | 0.02 | 0.00 | 81 | 1020.5 |
| 20260831120531 | 70 | 0 | 0.0 | 2.0 | 0.00 | 0.02 | 0.00 | 82 | 1020.4 |
| 20260831120049 | 69 | 0 | 0.0 | 2.0 | 0.00 | 0.02 | 0.00 | 82 | 1020.5 |
| 20260831115533 | 69 | 352 | 0.0 | 2.0 | 0.00 | 0.02 | 0.00 | 82 | 1020.3 |
| 20260831115032 | 69 | 352 | 0.0 | 2.0 | 0.00 | 0.02 | 0.00 | 83 | 1020.2 |
| 20260831114548 | 69 | 352 | 0.0 | 2.0 | 0.00 | 0.02 | 0.00 | 82 | 1020.1 |
| 20260831114032 | 69 | 0 | 0.0 | 1.0 | 0.00 | 0.02 | 0.00 | 82 | 1020.0 |
| 20260831113531 | 69 | 0 | 0.0 | 2.0 | 0.00 | 0.02 | 0.00 | 83 | 1019.9 |
| 20260831113048 | 69 | 352 | 0.0 | 3.0 | 0.00 | 0.02 | 0.00 | 82 | 1019.9 |
| 20260831112531 | 69 | 352 | 0.0 | 3.0 | 0.00 | 0.02 | 0.00 | 83 | 1019.7 |
| 20260831112032 | 69 | 352 | 1.0 | 3.0 | 0.00 | 0.02 | 0.00 | 84 | 1019.7 |
| 20260831111608 | 69 | 352 | 1.0 | 3.0 | 0.00 | 0.02 | 0.00 | 83 | 1019.6 |
| 20260831111032 | 69 | 0 | 0.0 | 3.0 | 0.00 | 0.02 | 0.00 | 83 | 1019.5 |
| 20260831110531 | 69 | 0 | 0.0 | 3.0 | 0.00 | 0.02 | 0.00 | 83 | 1019.6 |
| 20260831110050 | 69 | 352 | 1.0 | 2.0 | 0.00 | 0.02 | 0.00 | 83 | 1019.6 |
| 20260831105531 | 68 | 0 | 1.0 | 3.0 | 0.00 | 0.02 | 0.00 | 83 | 1019.6 |
| 20260831105032 | 69 | 352 | 1.0 | 3.0 | 0.00 | 0.02 | 0.00 | 83 | 1019.7 |
| 20260831104549 | 68 | 352 | 1.0 | 3.0 | 0.00 | 0.02 | 0.00 | 83 | 1019.6 |
| 20260831104032 | 68 | 352 | 2.0 | 3.0 | 0.00 | 0.02 | 0.00 | 83 | 1019.5 |
| 20260831103531 | 69 | 352 | 1.0 | 4.0 | 0.00 | 0.02 | 0.00 | 83 | 1019.5 |
| 20260831103104 | 69 | 352 | 2.0 | 8.0 | 0.00 | 0.02 | 0.00 | 84 | 1019.5 |
| 20260831102531 | 69 | 352 | 3.0 | 8.0 | 0.00 | 0.02 | 0.00 | 84 | 1019.4 |
| 20260831102030 | 69 | 352 | 5.0 | 8.0 | 0.00 | 0.02 | 0.00 | 84 | 1019.4 |
| 20260831101557 | 69 | 352 | 4.0 | 6.0 | 0.00 | 0.02 | 0.00 | 84 | 1019.4 |
| 20260831101032 | 69 | 352 | 3.0 | 5.0 | 0.00 | 0.02 | 0.00 | 83 | 1019.3 |
| 20260831100530 | 69 | 352 | 2.0 | 5.0 | 0.00 | 0.02 | 0.00 | 83 | 1019.5 |
| 20260831100049 | 69 | 352 | 1.0 | 5.0 | 0.00 | 0.02 | 0.00 | 82 | 1019.5 |
| 20260831095530 | 69 | 352 | 3.0 | 9.0 | 0.00 | 0.02 | 0.00 | 83 | 1019.5 |
| 20260831095033 | 69 | 352 | 4.0 | 10.0 | 0.00 | 0.02 | 0.00 | 82 | 1019.4 |
| 20260831094548 | 69 | 352 | 5.0 | 10.0 | 0.00 | 0.02 | 0.00 | 82 | 1019.4 |
| 20260831094033 | 69 | 352 | 6.0 | 10.0 | 0.00 | 0.02 | 0.00 | 82 | 1019.3 |
| 20260831093533 | 69 | 352 | 4.0 | 9.0 | 0.00 | 0.02 | 0.00 | 82 | 1019.3 |
| 20260831093047 | 69 | 352 | 6.0 | 9.0 | 0.00 | 0.02 | 0.00 | 83 | 1019.3 |
| 20260831092531 | 69 | 352 | 5.0 | 10.0 | 0.00 | 0.02 | 0.00 | 82 | 1019.1 |
| 20260831092031 | 69 | 352 | 4.0 | 11.0 | 0.00 | 0.02 | 0.00 | 82 | 1019.0 |
| 20260831091600 | 69 | 352 | 5.0 | 12.0 | 0.00 | 0.02 | 0.00 | 82 | 1019.2 |
| 20260831091033 | 69 | 352 | 7.0 | 12.0 | 0.00 | 0.02 | 0.00 | 82 | 1019.1 |
| 20260831090531 | 69 | 352 | 7.0 | 11.0 | 0.00 | 0.02 | 0.00 | 82 | 1019.2 |
| 20260831090047 | 69 | 352 | 8.0 | 12.0 | 0.00 | 0.02 | 0.00 | 82 | 1019.2 |
| 20260831085532 | 69 | 352 | 9.0 | 13.0 | 0.00 | 0.02 | 0.00 | 81 | 1019.2 |
| 20260831085029 | 70 | 352 | 8.0 | 13.0 | 0.00 | 0.02 | 0.00 | 82 | 1019.1 |
| 20260831084549 | 70 | 343 | 9.0 | 12.0 | 0.00 | 0.02 | 0.00 | 83 | 1019.0 |
| 20260831084032 | 70 | 352 | 8.0 | 12.0 | 0.00 | 0.02 | 0.00 | 82 | 1019.2 |
| 20260831083532 | 70 | 352 | 8.0 | 12.0 | 0.00 | 0.02 | 0.00 | 81 | 1019.1 |
| 20260831083100 | 70 | 352 | 7.0 | 13.0 | 0.00 | 0.02 | 0.00 | 82 | 1019.2 |
| 20260831082531 | 70 | 352 | 9.0 | 13.0 | 0.00 | 0.02 | 0.00 | 81 | 1019.2 |
| 20260831082030 | 70 | 348 | 8.0 | 11.0 | 0.00 | 0.02 | 0.00 | 81 | 1019.2 |
| 20260831081555 | 70 | 349 | 6.0 | 13.0 | 0.00 | 0.02 | 0.00 | 82 | 1019.1 |
| 20260831081033 | 70 | 348 | 9.0 | 13.0 | 0.00 | 0.02 | 0.00 | 80 | 1019.1 |
| 20260831080531 | 70 | 352 | 9.0 | 13.0 | 0.00 | 0.02 | 0.00 | 80 | 1019.2 |
| 20260831080110 | 70 | 351 | 9.0 | 14.0 | 0.00 | 0.02 | 0.00 | 81 | 1019.3 |
| 20260831075530 | 70 | 346 | 9.0 | 15.0 | 0.00 | 0.02 | 0.00 | 82 | 1019.4 |
| 20260831075031 | 70 | 345 | 9.0 | 15.0 | 0.00 | 0.02 | 0.00 | 81 | 1019.4 |
| 20260831074551 | 71 | 336 | 10.0 | 14.0 | 0.00 | 0.02 | 0.00 | 80 | 1019.3 |
| 20260831074031 | 71 | 342 | 10.0 | 14.0 | 0.00 | 0.02 | 0.00 | 80 | 1019.3 |
| 20260831073532 | 71 | 346 | 9.0 | 16.0 | 0.00 | 0.02 | 0.00 | 80 | 1019.3 |
| 20260831073113 | 71 | 350 | 9.0 | 16.0 | 0.00 | 0.02 | 0.00 | 80 | 1019.2 |
| 20260831072531 | 71 | 346 | 11.0 | 16.0 | 0.00 | 0.02 | 0.00 | 79 | 1019.3 |
| 20260831072032 | 71 | 352 | 10.0 | 16.0 | 0.00 | 0.02 | 0.00 | 80 | 1019.2 |
| 20260831071554 | 71 | 350 | 12.0 | 16.0 | 0.00 | 0.02 | 0.00 | 79 | 1019.2 |
| 20260831071034 | 71 | 334 | 11.0 | 16.0 | 0.00 | 0.02 | 0.00 | 80 | 1019.3 |
| 20260831070534 | 72 | 330 | 12.0 | 16.0 | 0.00 | 0.02 | 0.00 | 80 | 1019.2 |
| 20260831070100 | 72 | 339 | 14.0 | 16.0 | 0.00 | 0.02 | 0.00 | 78 | 1019.1 |
| 20260831065531 | 72 | 330 | 13.0 | 16.0 | 0.00 | 0.02 | 0.00 | 78 | 1018.9 |
| 20260831065031 | 72 | 329 | 13.0 | 16.0 | 0.00 | 0.02 | 0.00 | 79 | 1019.0 |
| 20260831064552 | 72 | 323 | 11.0 | 15.0 | 0.00 | 0.02 | 0.00 | 78 | 1019.1 |
| 20260831064033 | 72 | 325 | 10.0 | 15.0 | 0.00 | 0.02 | 0.00 | 79 | 1019.1 |
| 20260831063531 | 72 | 334 | 9.0 | 10.0 | 0.00 | 0.02 | 0.00 | 82 | 1019.2 |
| 20260831063049 | 72 | 334 | 7.0 | 11.0 | 0.00 | 0.02 | 0.00 | 82 | 1019.1 |
| 20260831062532 | 72 | 335 | 9.0 | 12.0 | 0.00 | 0.02 | 0.00 | 81 | 1019.0 |
| 20260831062033 | 72 | 339 | 8.0 | 12.0 | 0.00 | 0.02 | 0.00 | 80 | 1019.1 |
| 20260831061547 | 72 | 337 | 9.0 | 13.0 | 0.00 | 0.02 | 0.00 | 83 | 1019.0 |
| 20260831061034 | 72 | 340 | 10.0 | 14.0 | 0.00 | 0.02 | 0.00 | 81 | 1018.9 |
| 20260831060531 | 72 | 348 | 10.0 | 14.0 | 0.00 | 0.02 | 0.00 | 81 | 1018.9 |
| 20260831060052 | 72 | 340 | 11.0 | 14.0 | 0.00 | 0.02 | 0.00 | 83 | 1018.9 |
| 20260831055531 | 72 | 338 | 12.0 | 15.0 | 0.00 | 0.02 | 0.00 | 83 | 1018.9 |
| 20260831055032 | 73 | 331 | 11.0 | 15.0 | 0.00 | 0.02 | 0.00 | 84 | 1018.8 |
| 20260831054553 | 73 | 329 | 12.0 | 15.0 | 0.00 | 0.02 | 0.00 | 85 | 1018.8 |
| 20260831054032 | 73 | 328 | 11.0 | 14.0 | 0.00 | 0.02 | 0.00 | 85 | 1018.8 |
| 20260831053530 | 73 | 313 | 9.0 | 11.0 | 0.00 | 0.02 | 0.00 | 86 | 1018.7 |
| 20260831053050 | 73 | 313 | 9.0 | 12.0 | 0.00 | 0.02 | 0.00 | 86 | 1018.7 |
| 20260831052531 | 73 | 315 | 9.0 | 13.0 | 0.00 | 0.02 | 0.00 | 86 | 1018.6 |
| 20260831052029 | 73 | 309 | 9.0 | 13.0 | 0.00 | 0.02 | 0.00 | 85 | 1018.6 |
| 20260831051547 | 73 | 309 | 9.0 | 13.0 | 0.00 | 0.02 | 0.00 | 84 | 1018.6 |
| 20260831051031 | 73 | 316 | 10.0 | 13.0 | 0.00 | 0.02 | 0.00 | 84 | 1018.6 |
| 20260831050531 | 73 | 313 | 11.0 | 16.0 | 0.00 | 0.02 | 0.00 | 84 | 1018.6 |
| 20260831050047 | 73 | 312 | 12.0 | 16.0 | 0.00 | 0.02 | 0.00 | 84 | 1018.6 |
| 20260831045535 | 73 | 316 | 12.0 | 17.0 | 0.00 | 0.02 | 0.00 | 83 | 1018.7 |
| 20260831045032 | 73 | 311 | 12.0 | 17.0 | 0.00 | 0.02 | 0.00 | 83 | 1018.7 |
| 20260831044558 | 73 | 319 | 12.0 | 17.0 | 0.00 | 0.02 | 0.00 | 84 | 1018.7 |
| 20260831044034 | 73 | 300 | 13.0 | 19.0 | 0.00 | 0.02 | 0.00 | 84 | 1018.6 |
| 20260831043534 | 74 | 305 | 14.0 | 19.0 | 0.00 | 0.02 | 0.00 | 83 | 1018.5 |
| 20260831043050 | 74 | 312 | 15.0 | 19.0 | 0.00 | 0.02 | 0.00 | 82 | 1018.4 |
| 20260831042533 | 74 | 300 | 14.0 | 19.0 | 0.00 | 0.02 | 0.00 | 83 | 1018.3 |
| 20260831042036 | 74 | 299 | 14.0 | 17.0 | 0.00 | 0.02 | 0.00 | 84 | 1018.3 |
| 20260831041554 | 74 | 291 | 13.0 | 18.0 | 0.00 | 0.02 | 0.00 | 84 | 1018.2 |
| 20260831041037 | 74 | 287 | 14.0 | 18.0 | 0.00 | 0.02 | 0.00 | 84 | 1018.3 |
| 20260831040531 | 74 | 281 | 14.0 | 17.0 | 0.00 | 0.02 | 0.00 | 83 | 1018.3 |
| 20260831040058 | 74 | 289 | 13.0 | 17.0 | 0.00 | 0.02 | 0.00 | 84 | 1018.4 |
| 20260831035535 | 74 | 264 | 11.0 | 16.0 | 0.00 | 0.02 | 0.02 | 83 | 1018.4 |
| 20260831035035 | 74 | 279 | 11.0 | 17.0 | 0.00 | 0.02 | 0.02 | 84 | 1018.3 |
| 20260831034551 | 74 | 275 | 12.0 | 16.0 | 0.00 | 0.02 | 0.02 | 84 | 1018.4 |
| 20260831034035 | 74 | 249 | 10.0 | 16.0 | 0.00 | 0.02 | 0.02 | 85 | 1018.5 |
| 20260831033532 | 74 | 266 | 10.0 | 15.0 | 0.00 | 0.02 | 0.02 | 85 | 1018.5 |
| 20260831033049 | 74 | 273 | 9.0 | 15.0 | 0.00 | 0.02 | 0.02 | 84 | 1018.6 |
| 20260831032534 | 74 | 272 | 10.0 | 15.0 | 0.01 | 0.02 | 0.02 | 84 | 1018.7 |
| 20260831032034 | 73 | 279 | 10.0 | 16.0 | 0.01 | 0.02 | 0.02 | 84 | 1018.7 |
| 20260831031544 | 73 | 265 | 9.0 | 16.0 | 0.01 | 0.02 | 0.02 | 85 | 1018.7 |
| 20260831031033 | 73 | 277 | 10.0 | 16.0 | 0.01 | 0.02 | 0.02 | 86 | 1018.8 |
| 20260831030534 | 73 | 281 | 11.0 | 16.0 | 0.01 | 0.02 | 0.02 | 85 | 1018.9 |
| 20260831030058 | 73 | 248 | 7.0 | 15.0 | 0.01 | 0.02 | 0.02 | 85 | 1019.0 |
| 20260831025537 | 74 | 261 | 8.0 | 14.0 | 0.01 | 0.02 | 0.02 | 87 | 1019.0 |
| 20260831025035 | 74 | 268 | 10.0 | 14.0 | 0.01 | 0.02 | 0.02 | 86 | 1019.1 |
| 20260831024547 | 73 | 273 | 6.0 | 16.0 | 0.01 | 0.02 | 0.02 | 85 | 1019.0 |
| 20260831024037 | 74 | 262 | 9.0 | 16.0 | 0.02 | 0.02 | 0.02 | 85 | 1019.0 |
| 20260831023534 | 73 | 266 | 9.0 | 14.0 | 0.02 | 0.02 | 0.02 | 85 | 1019.1 |
| 20260831023051 | 73 | 237 | 6.0 | 12.0 | 0.02 | 0.02 | 0.02 | 87 | 1019.0 |
| 20260831022538 | 73 | 223 | 4.0 | 12.0 | 0.01 | 0.01 | 0.01 | 87 | 1018.9 |
| 20260831022034 | 73 | 265 | 5.0 | 12.0 | 0.01 | 0.01 | 0.01 | 87 | 1018.8 |
| 20260831021551 | 73 | 224 | 6.0 | 11.0 | 0.01 | 0.01 | 0.01 | 88 | 1018.8 |
| 20260831021031 | 73 | 251 | 4.0 | 10.0 | 0.01 | 0.01 | 0.01 | 88 | 1018.9 |
| 20260831020534 | 73 | 243 | 4.0 | 11.0 | 0.01 | 0.01 | 0.01 | 88 | 1018.9 |
| 20260831020050 | 73 | 246 | 4.0 | 11.0 | 0.01 | 0.01 | 0.01 | 88 | 1018.9 |
| 20260831015532 | 73 | 194 | 3.0 | 10.0 | 0.01 | 0.01 | 0.01 | 88 | 1018.8 |
| 20260831015032 | 73 | 214 | 4.0 | 10.0 | 0.01 | 0.01 | 0.01 | 88 | 1018.7 |
| 20260831014547 | 73 | 204 | 2.0 | 6.0 | 0.01 | 0.01 | 0.01 | 87 | 1018.9 |
| 20260831014034 | 73 | 204 | 1.0 | 6.0 | 0.00 | 0.00 | 0.00 | 87 | 1018.7 |
| 20260831013534 | 73 | 204 | 2.0 | 7.0 | 0.00 | 0.00 | 0.00 | 86 | 1018.7 |
| 20260831013053 | 73 | 204 | 3.0 | 7.0 | 0.00 | 0.00 | 0.00 | 85 | 1018.7 |
| 20260831012534 | 73 | 204 | 3.0 | 8.0 | 0.00 | 0.00 | 0.00 | 84 | 1018.7 |
| 20260831012032 | 73 | 204 | 4.0 | 9.0 | 0.00 | 0.00 | 0.00 | 84 | 1018.7 |
| 20260831011551 | 73 | 204 | 3.0 | 9.0 | 0.00 | 0.00 | 0.00 | 84 | 1018.6 |
| 20260831011033 | 73 | 205 | 4.0 | 9.0 | 0.00 | 0.00 | 0.00 | 83 | 1018.7 |
| 20260831010533 | 73 | 205 | 3.0 | 10.0 | 0.00 | 0.00 | 0.00 | 83 | 1018.6 |
| 20260831010104 | 73 | 209 | 2.0 | 10.0 | 0.00 | 0.00 | 0.00 | 83 | 1018.5 |
| 20260831005532 | 74 | 209 | 3.0 | 10.0 | 0.00 | 0.00 | 0.00 | 83 | 1018.5 |
| 20260831005032 | 73 | 216 | 4.0 | 10.0 | 0.00 | 0.00 | 0.00 | 83 | 1018.5 |
| 20260831004552 | 73 | 195 | 3.0 | 8.0 | 0.00 | 0.00 | 0.00 | 83 | 1018.5 |
| 20260831004031 | 73 | 194 | 3.0 | 9.0 | 0.00 | 0.00 | 0.00 | 83 | 1018.6 |
| 20260831003532 | 73 | 194 | 3.0 | 11.0 | 0.00 | 0.00 | 0.00 | 82 | 1018.5 |
| 20260831003104 | 73 | 194 | 2.0 | 16.0 | 0.00 | 0.00 | 0.00 | 82 | 1018.4 |
| 20260831002533 | 73 | 189 | 4.0 | 12.0 | 0.00 | 0.00 | 0.00 | 82 | 1018.5 |
| 20260831002031 | 73 | 205 | 4.0 | 11.0 | 0.00 | 0.00 | 0.00 | 82 | 1018.4 |
| 20260831001558 | 73 | 202 | 3.0 | 11.0 | 0.00 | 0.00 | 0.00 | 82 | 1018.5 |
| 20260831001035 | 73 | 197 | 4.0 | 11.0 | 0.00 | 0.00 | 0.00 | 82 | 1018.4 |
| 20260831000534 | 73 | 206 | 5.0 | 11.0 | 0.00 | 0.00 | 0.00 | 82 | 1018.4 |
| 20260831000054 | 73 | 205 | 3.0 | 11.0 | 0.00 | 0.00 | 0.00 | 82 | 1018.3 |
| 20260830235534 | 73 | 207 | 3.0 | 11.0 | 0.00 | 0.00 | 0.00 | 81 | 1018.4 |
| 20260830235034 | 73 | 213 | 2.0 | 10.0 | 0.00 | 0.00 | 0.00 | 81 | 1018.3 |
| 20260830234600 | 73 | 209 | 3.0 | 10.0 | 0.00 | 0.00 | 0.00 | 81 | 1018.3 |
| 20260830234037 | 73 | 207 | 2.0 | 10.0 | 0.00 | 0.00 | 0.00 | 81 | 1018.2 |
| 20260830233534 | 73 | 211 | 3.0 | 8.0 | 0.00 | 0.00 | 0.00 | 80 | 1018.3 |